Weather observations for the past three days for
King Salmon, King Salmon Airport
Imperial (Metric)
Date Time (akdt) Wind (mph) Vis. (mi.) Weather Sky Cond. Temperature (ºF) Relative Humidity Wind Chill (°F) Heat Index (°F) Pressure Precipitation (in)
Air Dwpt 6 hour altimeter (in) sea level (mb) 1 hr 3 hr 6 hr
Max. Min.
21 13:54 NW 6 10.00 Fair CLR 75 55 50% 78 30.1 1019.3
21 12:54 Calm 10.00 Fair CLR 69.1 55 61% 30.11 1019.7
21 11:54 Calm 10.00 Fair CLR 66.9 54 63% 30.13 1020.2
21 10:54 Calm 10.00 Fair CLR 64 54 70% 30.14 1020.5
21 09:54 S 3 10.00 Fair CLR 62.1 54 62.1 43 75% 30.15 1020.9
21 08:54 Calm 10.00 Fair CLR 57.2 51.8 82% 30.15 1020.8
21 07:54 E 3 10.00 Fair CLR 50 50 100% 30.15 1020.8
21 06:54 Calm 9.00 Fair CLR 46.4 0 0% 30.15 1020.8
21 05:54 Calm 10.00 Fair CLR 44.6 0 0% 30.14 1020.6
21 04:54 Calm 10.00 Fair CLR 46.4 0 0% 30.15 1020.8
21 03:54 S 6 10.00 Fair CLR 51.8 0 69.1 50 0% 30.15 1020.8
21 02:54 Calm 10.00 A Few Clouds FEW095 51.8 0 0% 30.15 1021.0
21 01:54 S 5 10.00 A Few Clouds FEW040 53.6 0 0% 30.14 1020.6
21 00:54 SE 9 10.00 Fair CLR 57.2 0 0% 30.13 1020.4
20 23:54 Calm 10.00 A Few Clouds FEW040 57.9 54 87% 30.12 1020.0
20 22:54 Calm 10.00 A Few Clouds FEW040 64.9 53.1 66% 30.12 1020.0
20 21:54 W 7 10.00 Fair CLR 69.1 53.1 80.1 69.1 57% 30.11 1019.7
20 20:54 SE 3 10.00 Fair CLR 75 52 45% 78 30.11 1019.4
20 19:54 NE 7 10.00 Partly Cloudy SCT080 78.1 46.9 33% 78 30.11 1019.4
20 18:54 N 6 10.00 A Few Clouds FEW070 78.1 48.9 36% 79 30.11 1019.4
20 17:54 NE 7 10.00 Partly Cloudy SCT075 75.9 48 37% 78 30.11 1019.7
20 16:54 Calm 10.00 A Few Clouds FEW030 79 48 34% 79 30.12 1019.7
20 15:54 Calm 10.00 A Few Clouds FEW050 77 48.9 78.1 50 37% 78 30.13 1020.1
20 14:54 N 9 10.00 Fair CLR 75 51.1 43% 78 30.14 1020.5
20 13:54 NW 8 10.00 Fair CLR 73 52 48% 30.15 1020.9
20 12:54 Calm 10.00 Fair CLR 69.1 51.1 53% 30.16 1021.4
20 11:54 NW 6 10.00 Fair CLR 64.9 50 59% 30.17 1021.7
20 10:54 W 6 10.00 A Few Clouds FEW002 57 51.1 81% 30.18 1022.0
20 09:54 S 3 8.00 Mostly Cloudy BKN002 50 48.9 50 41 96% 30.19 1022.3
20 08:54 SE 7 0.25 Fog VV002 46 45 96% 43 30.19 1022.4
20 07:54 S 7 0.25 Fog VV002 44.1 44.1 100% 41 30.19 1022.4
20 06:54 S 7 0.50 Fog VV001 42.1 42.1 100% 38 30.19 1022.3
20 05:54 S 5 0.75 Fog/Mist VV001 41 41 100% 38 30.19 1022.5
20 04:54 SE 6 10.00 Fair CLR 43 42.1 97% 40 30.19 1022.5
20 03:54 SE 7 10.00 Fair CLR 45 44.1 62.1 45 97% 42 30.19 1022.3
20 02:54 SE 8 10.00 Fair CLR 46 45 96% 42 30.19 1022.4
20 01:54 Calm 10.00 Fair CLR 50 46.9 89% 30.19 1022.2
20 00:54 NW 8 10.00 Fair CLR 53.1 48 83% 30.18 1021.9
19 23:54 W 9 10.00 Fair CLR 54 48.9 83% 30.17 1021.7
19 22:54 W 12 10.00 Fair CLR 59 50 72% 30.17 1021.6
19 21:54 W 12 10.00 Mostly Cloudy BKN090 62.1 52 68 60.1 70% 30.17 1021.5
19 20:54 W 10 10.00 Overcast FEW060 OVC085 63 51.1 65% 30.16 1021.3
19 19:54 W 12 10.00 Overcast SCT060 BKN075 OVC085 64.9 50 59% 30.16 1021.2
19 18:54 W 14 10.00 Mostly Cloudy BKN085 68 50 53% 30.15 1021.0
19 17:54 W 12 10.00 Partly Cloudy FEW060 SCT080 66.9 51.1 57% 30.16 1021.1
19 16:54 Calm 10.00 Fair CLR 64 55 73% 30.17 1021.7
19 15:54 S 8 10.00 Light Rain SCT050 BKN075 OVC090 60.1 55.9 66 53.1 86% 30.18 1021.9 0.04 0.04
19 14:54 SW 5 8.00 Light Rain BKN041 BKN050 BKN065 63 52 68% 30.17 1021.7
19 13:54 S 5 10.00 Overcast BKN037 OVC050 63 50 63% 30.17 1021.7
19 12:54 Vrbl 3 10.00 Partly Cloudy SCT050 63 51.1 65% 30.18 1021.9
19 11:54 S 7 10.00 Partly Cloudy FEW010 SCT095 59 52 78% 30.18 1022.0
19 10:54 Vrbl 3 10.00 Mostly Cloudy FEW009 SCT055 BKN100 55.9 52 87% 30.18 1021.9
19 09:54 SE 3 10.00 Overcast FEW080 OVC100 53.1 51.1 53.1 46.9 93% 30.17 1021.6
19 08:54 S 3 10.00 Overcast OVC050 51.1 50 96% 30.17 1021.5
19 07:54 Calm 10.00 Light Rain SCT070 OVC080 50 48.9 96% 30.16 1021.3
19 06:54 Calm 10.00 Overcast SCT060 OVC085 48 46.9 96% 30.15 1020.9
19 05:54 Calm 10.00 Overcast FEW001 OVC080 48.9 48.9 100% 30.14 1020.7
19 04:54 Calm 10.00 Overcast OVC075 46.9 46.9 100% 30.14 1020.5
19 03:54 Calm 10.00 Overcast OVC070 46.9 46.9 59 46 100% 30.13 1020.3
19 02:54 Calm 10.00 Mostly Cloudy BKN075 46 46 100% 30.13 1020.2
19 01:54 SW 3 10.00 A Few Clouds FEW070 52 48.9 89% 30.12 1020.1
19 00:54 Calm 10.00 Overcast OVC065 54 48.9 83% 30.12 1019.9
18 23:54 Calm 10.00 Overcast FEW050 OVC070 54 48 80% 30.11 1019.6
18 22:54 W 5 10.00 Mostly Cloudy BKN065 55.9 48.9 77% 30.1 1019.1
18 21:54 NW 6 10.00 A Few Clouds FEW060 59 46.9 63 59 64% 30.09 1018.7
18 20:54 NW 8 10.00 Partly Cloudy SCT075 62.1 46 56% 30.07 1018.3
18 19:54 NW 8 10.00 Partly Cloudy SCT050 62.1 46 56% 30.06 1018.0
18 18:54 Calm 10.00 Overcast OVC070 62.1 44.1 52% 30.06 1017.9
18 17:54 NW 5 10.00 Overcast OVC060 62.1 45 54% 30.05 1017.7
18 16:54 NW 3 10.00 Overcast OVC060 60.1 45 58% 30.05 1017.6
18 15:54 NW 6 10.00 Overcast OVC055 59 46 59 54 62% 30.06 1017.7
18 14:54 NW 8 10.00 Overcast OVC055 57.9 46.9 67% 30.05 1017.5
Date Time (akdt) Wind (mph) Vis. (mi.) Weather Sky Cond. Air Dwpt Max. Min. Relative Humidity Wind Chill (°F) Heat Index (°F) altimeter (in) sea level (mb) 1 hr 3 hr 6 hr
6 hour
Temperature (ºF) Pressure Precipitation (in)